Weather Roundup
Issued by NWS Chicago, IL

Home | Current Version | Previous Version | Text Only | Print | Product List | Glossary Off
Versions: 1 2 3 4 5 6 7 8 9 10 11 12 13 14 15 16 17 18 19 20 21 22 23 24 25 26 27 28 29 30 31 32 33 34 35 36 37 38 39 40 41 42 43 44 45 46 47 48 49 50

000
NZUS59 KLOT 181008
HRRLOT

CHICAGO AREA WEATHER ROUNDUP
NATIONAL WEATHER SERVICE CHICAGO/ROMEOVILLE IL
400 AM CST THU JAN 18 2018

NOTE: "FAIR" INDICATES FEW OR NO CLOUDS BELOW 12,000 FEET WITH NO
SIGNIFICANT WEATHER AND/OR OBSTRUCTIONS TO VISIBILITY.

* THESE STATIONS ARE NOT UNDER NWS QUALITY CONTROL. THEY ALSO MAY NOT
  REPORT WEATHER SUCH AS PRECIPITATION OR FOG.

ILZ005-006-012>014-019>023-181100-
NORTHEAST ILLINOIS

CITY           SKY/WX    TMP DP  RH WIND       PRES   REMARKS
OHARE            N/A     17   9  70 W12       30.15S WCI   4
MIDWAY           N/A     18  10  71 SW15G24   30.18F WCI   4
AURORA           N/A     15   9  76 SW15G23   30.18F WCI   0
LANSING*         N/A     15  10  81 SW13G18   30.21F WCI   1
JOLIET*          N/A     18  11  73 SW12      30.21F WCI   6
WAUKEGAN         N/A     18   9  68 VRB7      30.09F WCI   9
DUPAGE AIRPORT   N/A     15  10  80 SW16G25   30.16F WCI  -1
WHEELING         N/A     19  10  68 SW13      30.15F WCI   6
KANKAKEE*        N/A     15   8  73 SW12      30.26S WCI   1
MORRIS*          N/A     17   9  72 SW10      30.21F WCI   4
LEWIS AIRPORT*   N/A     15  10  78 W13       30.20S WCI   1
NORTHERLY ISL    N/A     18  10  71 SW12        N/A  WCI   6
$$

WIZ051-052-058>065-066-070>072-181100-
SOUTHEAST WISCONSIN

CITY           SKY/WX    TMP DP  RH WIND       PRES   REMARKS
MILWAUKEE        N/A     21  11  65 W13G20    30.06F WCI   9
KENOSHA*         N/A     18   9  68 SW13G22   30.09F WCI   5
RACINE*          N/A     19  10  68 W13G22    30.09F WCI   6
BURLINGTON       N/A     17   9  69 W8G17     30.10S WCI   7
WAUKESHA         N/A     18   9  68 SW14      30.06F WCI   4
WEST BEND        N/A     19  12  73 W9G17     30.02S WCI   9
$$

INZ001>003-010>013-019-020-181100-
NORTHWEST INDIANA

CITY           SKY/WX    TMP DP  RH WIND       PRES   REMARKS
GARY*            N/A     19   9  67 SW10G18   30.20F WCI   7
MICHIGAN CITY* NOT AVBL
RENSSELAER*    NOT AVBL
VALPARAISO       N/A     15   9  76 SW14      30.19F WCI   0
$$

LMZ740>746-181100-
SOUTHERN LAKE MICHIGAN

STATION/POSITION TIME  SKY/WX   TEMP WIND        PRES    VSBY
                                AIR  DIR/SP/G
                 (UTC)          (F)  (DEG/KT/KT) (MB)    (MI)
HARRISON CRIB    0940            21  230/ 14/ 20   N/A
BURNHAM HARBOR   1000            18  210/ 13/ 18   N/A
CALUMET HARBOR   0942            17  210/ 10/ 20 1021.3F
BURNS HARBOR     0940            17  220/ 13/ 18 1022.7F
MICHIGAN CITY    0940            17  210/ 20/ 23   N/A
$$

ABBREVIATIONS USED IN REMARKS
   TC - TEMPERATURE IN CELSIUS
  WCI - WIND CHILL INDEX
   HX - HEAT INDEX
  VSB - VISIBILITY
$$



USA.gov is the U.S. government's official web portal to all federal, state and local government web resources and services.